This is the latest recevied weather packets stored in our database for station/object K5NAN. If no packets are shown the sender has not sent any weather packets the latest 10 day(s).
| Time | Temp. | Humidity | Pressure | Rain* | Wind** | Luminosity | Snow |
|---|---|---|---|---|---|---|---|
| 1777683996 | 15.56° C | 77% | 1015.8 hPa | 0 mm | - | 1 W/m² | - |
| 1777683692 | 15.56° C | 76% | 1015.8 hPa | 0 mm | - | 2 W/m² | - |
| 1777683390 | 15.56° C | 76% | 1015.7 hPa | 0 mm | - | 2 W/m² | - |
| 1777683087 | 15.56° C | 73% | 1015.7 hPa | 0 mm | - | 4 W/m² | - |
| 1777682782 | 15.56° C | 73% | 1015.6 hPa | 0 mm | - | 5 W/m² | - |
| 1777682480 | 15.56° C | 71% | 1015.5 hPa | 0 mm | - | 8 W/m² | - |
| 1777682178 | 16.11° C | 70% | 1015.1 hPa | 0 mm | - | 10 W/m² | - |
| 1777681874 | 16.11° C | 70% | 1015.1 hPa | 0 mm | - | 12 W/m² | - |
| 1777681570 | 16.11° C | 70% | 1015.2 hPa | 0 mm | - | 17 W/m² | - |
| 1777681268 | 16.11° C | 70% | 1015.1 hPa | 0 mm | - | 20 W/m² | - |
| 1777680966 | 16.11° C | 70% | 1014.9 hPa | 0 mm | - | 27 W/m² | - |
| 1777680662 | 16.11° C | 70% | 1014.7 hPa | 0 mm | - | 36 W/m² | - |
| 1777680361 | 16.11° C | 70% | 1014.8 hPa | 0 mm | - | 44 W/m² | - |
| 1777680057 | 16.11° C | 68% | 1014.6 hPa | 0 mm | - | 52 W/m² | - |
| 1777679753 | 16.11° C | 68% | 1014.6 hPa | 0 mm | - | 44 W/m² | - |
| 1777679449 | 16.11° C | 68% | 1014.7 hPa | 0 mm | - | 37 W/m² | - |
| 1777679145 | 16.67° C | 68% | 1014.8 hPa | 0 mm | - | 47 W/m² | - |
| 1777678843 | 16.67° C | 67% | 1014.6 hPa | 0 mm | - | 61 W/m² | - |
| 1777678541 | 16.67° C | 67% | 1014.3 hPa | 0 mm | - | 73 W/m² | - |
| 1777678238 | 16.67° C | 66% | 1014.5 hPa | 0 mm | - | 73 W/m² | - |
| 1777677934 | 16.67° C | 66% | 1014.4 hPa | 0 mm | - | 79 W/m² | - |
| 1777677631 | 16.67° C | 66% | 1014.4 hPa | 0 mm | - | 86 W/m² | - |
| 1777677329 | 16.67° C | 66% | 1014.4 hPa | 0 mm | - | 92 W/m² | - |
| 1777677027 | 16.67° C | 65% | 1014.3 hPa | 0 mm | - | 95 W/m² | - |
| 1777676726 | 16.67° C | 65% | 1014.2 hPa | 0 mm | - | 94 W/m² | - |
* Rain latest hour (hover to see other rain measurements)
** Current wind speed in m/s (hover to see current wind gust speed)